Location: Hawaiian Village Mobile Home Park
(32.8359°N, 116.9792°W)
Time: 11:00:42
(UTC+00:00)

Daily predictions for brighter satellites

Satellite Brightness Start Highest point End
(mag) Time Altitude Azimuth Time Altitude Azimuth Time Altitude Azimuth
Cosmos 1184 Rocket 3.5 12:01:52 10° NNW 12:04:43 30° W 12:06:53 14° SSW
Cosmos 2208 Rocket 3.9 12:00:51 10° NNW 12:06:04 86° WSW 12:11:14 10° SSE
SL-19 R/B 4.5 12:05:34 10° SSE 12:11:12 85° ENE 12:17:12 10° NNW
Cosmos 1441 Rocket 3.2 12:08:45 10° NNW 12:12:40 64° W 12:16:35 10° S
Cosmos 1484 Rocket 2.8 12:11:31 10° N 12:15:30 76° WNW 12:19:29 10° SSW
Cosmos 1758 4.3 12:14:11 13° SW 12:17:06 27° W 12:20:32 10° NNW
FENGYUN 3A 4.0 12:12:07 10° N 12:17:17 47° WNW 12:22:25 10° SW
Cosmos 1503 Rocket 4.4 12:12:28 10° S 12:17:47 71° ESE 12:23:08 10° NNE
PSLV R/B 3.7 12:15:34 10° N 12:19:43 54° WNW 12:23:48 10° SSW
Cosmos 2278 Rocket 2.4 12:17:33 10° SW 12:23:04 55° WNW 12:28:38 10° N
USA 215 3.4 12:19:52 10° NE 12:26:21 69° NW 12:32:48 10° SW
Lacrosse 5 rocket 3.8 12:28:46 10° S 12:32:07 21° ESE 12:35:24 10° ENE
ALOS 3.2 12:30:22 10° NNW 12:34:24 30° WNW 12:38:25 10° SW
GPS 2-04 Rocket1 2.9 12:31:06 10° W 12:35:13 71° NNW 12:39:17 10° ENE
Meteor 1-21 Rocket 4.3 12:31:30 10° N 12:37:14 88° W 12:42:50 10° S
CZ-3 R/B 3.3 12:10:17 10° WSW 12:39:23 67° S 12:46:36 10° E
Cosmos 44 Rocket 3.9 12:36:07 10° NW 12:40:38 34° WSW 12:45:00 10° S
ADEOS 4.5 12:36:32 10° NNE 12:41:39 53° E 12:46:43 10° S
